Adrian, MI

3:46 AM EDT on September 29, 2016 (GMT -0400)
Lenawee County

Weather History for KADG - October, 2013

Change the Weather History Date:

Tuesday, October 15, 2013

  Actual Average Record
Temperature  
Mean Temperature 50 °F -  
Max Temperature 63 °F 63 °F 83 °F (1956)
Min Temperature 39 °F 40 °F 28 °F (2006)
Degree Days  
Heating Degree Days 14    
Moisture  
Dew Point 50 °F    
Average Humidity 89    
Maximum Humidity 100    
Minimum Humidity 80    
Precipitation  
Precipitation 0.00 in - - ()
Sea Level Pressure  
Sea Level Pressure 30.07 in    
Wind  
Wind Speed 5 mph (SE)    
Max Wind Speed 14 mph    
Max Gust Speed -    
Visibility 9 miles    
Events Rain    
Averages and records for this station are not official NWS values.
T = Trace of Precipitation, MM = Missing Value Source: NWS Daily Summary

Daily Weather History Graph

Daily Weather History Graph

Search for Another Location

Airport or City:

Trip Planner

Search our weather history database for the weather conditions in past years. The results will help you decide how hot, cold, wet, or windy it might be!

Date:

Astronomy

Oct. 15, 2013 Rise Set
Actual Time 7:48 AM EDT 6:54 PM EDT
Civil Twilight 7:20 AM EDT 7:22 PM EDT
Nautical Twilight 6:48 AM EDT 7:54 PM EDT
Astronomical Twilight 6:16 AM EDT 8:26 PM EDT
Moon 5:01 PM EDT (10/15) 4:07 AM EDT (10/15)
Length of Visible Light 12h 01m
Length of Day
11h 05m
Waxing Gibbous, 87% of the Moon is Illuminated
Oct 15
Waxing Gibbous
Oct 18
Full
Oct 26
Last Quarter
Nov 3
New
Nov 10
First Quarter

Hourly Weather History & Observations

Time (EDT) Temp. Windchill Dew Point Humidity Pressure Visibility Wind Dir Wind Speed Gust Speed Precip Events Conditions
12:53 AM 45.0 °F 43.5 °F 43.0 °F 93% 30.26 in 10.0 mi NE 3.5 mph - N/A   Clear
1:53 AM 44.1 °F 42.5 °F 42.1 °F 93% 30.24 in 10.0 mi NE 3.5 mph - N/A   Clear
2:53 AM 44.1 °F 42.5 °F 43.0 °F 96% 30.23 in 10.0 mi ENE 3.5 mph - N/A   Clear
3:53 AM 41.0 °F 38.0 °F 39.9 °F 96% 30.21 in 10.0 mi NE 4.6 mph - N/A   Clear
4:53 AM 39.9 °F 36.7 °F 39.9 °F 100% 30.20 in 9.0 mi NE 4.6 mph - N/A   Clear
5:53 AM 42.1 °F 39.2 °F 41.0 °F 96% 30.19 in 10.0 mi ENE 4.6 mph - N/A   Scattered Clouds
6:53 AM 42.1 °F 40.2 °F 41.0 °F 96% 30.17 in 10.0 mi ENE 3.5 mph - N/A   Partly Cloudy
7:39 AM 44.6 °F 43.1 °F 42.8 °F 93% 30.15 in 10.0 mi East 3.5 mph - N/A   Mostly Cloudy
7:53 AM 45.0 °F 43.5 °F 44.1 °F 97% 30.16 in 10.0 mi ENE 3.5 mph - N/A   Overcast
8:22 AM 46.4 °F 44.3 °F 44.6 °F 93% 30.14 in 10.0 mi ENE 4.6 mph - N/A   Mostly Cloudy
8:53 AM 48.0 °F - 45.0 °F 89% 30.15 in 10.0 mi SE 4.6 mph - N/A   Overcast
9:01 AM 48.2 °F - 44.6 °F 87% 30.14 in 10.0 mi ESE 3.5 mph - N/A   Overcast
9:32 AM 50.0 °F - 46.4 °F 87% 30.12 in 10.0 mi ESE 5.8 mph - N/A   Mostly Cloudy
9:40 AM 50.0 °F - 46.4 °F 87% 30.12 in 10.0 mi ESE 6.9 mph - N/A   Overcast
9:53 AM 50.0 °F - 46.0 °F 86% 30.14 in 10.0 mi ESE 3.5 mph - N/A   Mostly Cloudy
10:00 AM 50.0 °F - 46.4 °F 87% 30.13 in 10.0 mi ESE 3.5 mph - N/A   Mostly Cloudy
10:15 AM 51.8 °F - 46.4 °F 82% 30.12 in 10.0 mi SSE 4.6 mph - N/A   Mostly Cloudy
10:24 AM 51.8 °F - 46.4 °F 82% 30.12 in 10.0 mi SSE 3.5 mph - N/A   Mostly Cloudy
10:53 AM 53.1 °F - 48.0 °F 83% 30.12 in 10.0 mi SE 5.8 mph - N/A   Mostly Cloudy
11:53 AM 57.0 °F - 51.1 °F 81% 30.09 in 10.0 mi SSE 5.8 mph - N/A   Mostly Cloudy
12:17 PM 57.2 °F - 53.6 °F 88% 30.07 in 10.0 mi SE 6.9 mph - N/A   Overcast
12:53 PM 60.1 °F - 54.0 °F 80% 30.08 in 10.0 mi South 8.1 mph - N/A   Overcast
1:53 PM 60.1 °F - 54.0 °F 80% 30.04 in 10.0 mi South 6.9 mph - N/A   Mostly Cloudy
2:53 PM 60.1 °F - 55.0 °F 83% 30.02 in 8.0 mi South 9.2 mph - N/A   Overcast
3:53 PM 60.1 °F - 55.0 °F 83% 29.98 in 7.0 mi SSE 9.2 mph - N/A   Mostly Cloudy
4:53 PM 61.0 °F - 55.9 °F 83% 29.96 in 8.0 mi SSE 10.4 mph - N/A   Overcast
5:53 PM 61.0 °F - 55.9 °F 83% 29.95 in 8.0 mi South 6.9 mph - N/A   Overcast
6:46 PM 60.8 °F - 57.2 °F 88% 29.92 in 9.0 mi SSE 9.2 mph - N/A   Overcast
6:53 PM 61.0 °F - 57.0 °F 87% 29.92 in 9.0 mi South 8.1 mph - N/A   Overcast
7:53 PM 61.0 °F - 57.0 °F 87% 29.92 in 9.0 mi South 6.9 mph - N/A   Overcast
8:53 PM 61.0 °F - 57.9 °F 90% 29.89 in 7.0 mi South 8.1 mph - N/A   Overcast
9:53 PM 62.1 °F - 60.1 °F 93% 29.89 in 4.0 mi SSW 9.2 mph - 0.00 in Rain Light Rain
10:42 PM 62.6 °F - 60.8 °F 94% 29.87 in 4.0 mi SSW 10.4 mph - 0.00 in Rain Light Rain
10:53 PM 62.1 °F - 61.0 °F 96% 29.88 in 5.0 mi SSW 13.8 mph - 0.00 in   Overcast
11:53 PM 63.0 °F - 61.0 °F 93% 29.88 in 7.0 mi WSW 9.2 mph - 0.00 in Rain Light Rain